When you browse on this site, cookies collect data to enhance your experience and personalize the content and advertising you see.
Visit our Privacy Policy to learn more. By continuing to use the site, you agree to this use of cookies and data.
  • In Romania
  • List of Countries
  • For 7 days
  • Water Temperature
  • Satellite Maps
  • Weather Map
  • Weather Widgets
  • user-avatar
    Login

    Hourly Weather Arradon

    Today, 16 February, Saturday

    Time Temperature Precipitation Wind Pressure Humidity
    00:00 +7°C° 0 mm 2 mps 766 mmHg 89%
    01:00 +7°C° 0 mm 2 mps 766 mmHg 89%
    02:00 +7°C° 0 mm 2 mps 765 mmHg 89%
    03:00 +7°C° 0 mm 2 mps 765 mmHg 89%
    04:00 +7°C° 0 mm 2 mps 765 mmHg 89%
    05:00 +7°C° 0 mm 2 mps 765 mmHg 89%
    06:00 +7°C° 0 mm 3 mps 765 mmHg 89%
    07:00 +8°C° 0 mm 3 mps 765 mmHg 88%
    08:00 +8°C° 0 mm 3 mps 765 mmHg 87%
    09:00 +8°C° 0 mm 4 mps 765 mmHg 86%
    10:00 +10°C° 0 mm 4 mps 765 mmHg 82%
    11:00 +11°C° 0 mm 4 mps 765 mmHg 78%
    12:00 +13°C° 0 mm 5 mps 764 mmHg 75%
    13:00 +13°C° 0 mm 5 mps 764 mmHg 75%
    14:00 +13°C° 0 mm 5 mps 763 mmHg 75%
    15:00 +13°C° 0 mm 5 mps 763 mmHg 76%
    16:00 +12°C° 0 mm 5 mps 762 mmHg 81%
    17:00 +9°C° 0 mm 5 mps 762 mmHg 86%
    18:00 +8°C° 0 mm 5 mps 762 mmHg 91%
    19:00 +8°C° 0 mm 5 mps 762 mmHg 90%
    20:00 +8°C° 0 mm 5 mps 761 mmHg 89%
    21:00 +7°C° 0 mm 5 mps 761 mmHg 88%
    22:00 +7°C° 0 mm 5 mps 761 mmHg 88%
    23:00 +8°C° 0 mm 6 mps 761 mmHg 89%

    Tomorrow, 17 February, Sunday

    Time Temperature Precipitation Wind Pressure Humidity
    00:00 +8°C° 0 mm 6 mps 760 mmHg 89%
    01:00 +8°C° 0 mm 6 mps 760 mmHg 89%
    02:00 +8°C° 0 mm 6 mps 759 mmHg 89%
    03:00 +9°C° 0 mm 6 mps 759 mmHg 89%
    04:00 +9°C° 0 mm 6 mps 759 mmHg 90%
    05:00 +8°C° 0 mm 5 mps 759 mmHg 91%
    06:00 +8°C° 0 mm 5 mps 759 mmHg 91%
    07:00 +9°C° 0 mm 5 mps 759 mmHg 88%
    08:00 +10°C° 0 mm 5 mps 759 mmHg 85%
    09:00 +11°C° 0 mm 6 mps 759 mmHg 82%
    10:00 +11°C° 0 mm 6 mps 759 mmHg 78%
    11:00 +12°C° 0 mm 7 mps 759 mmHg 74%
    12:00 +14°C° 0 mm 7 mps 760 mmHg 70%
    13:00 +14°C° 0 mm 7 mps 759 mmHg 72%
    14:00 +14°C° 0 mm 7 mps 759 mmHg 73%
    15:00 +14°C° 0 mm 6 mps 759 mmHg 75%
    16:00 +13°C° 0 mm 5 mps 759 mmHg 79%
    17:00 +12°C° 0 mm 5 mps 759 mmHg 83%
    18:00 +11°C° 0 mm 4 mps 759 mmHg 87%
    19:00 +11°C° 0 mm 3 mps 759 mmHg 88%
    20:00 +10°C° 0 mm 3 mps 759 mmHg 90%
    21:00 +10°C° 0 mm 2 mps 759 mmHg 91%
    22:00 +10°C° 0 mm 1 mps 759 mmHg 92%
    23:00 +10°C° 0 mm 1 mps 759 mmHg 93%

    Day after tomorrow, 18 February, Monday

    Time Temperature Precipitation Wind Pressure Humidity
    00:00 +9°C° 0 mm 1 mps 759 mmHg 94%
    01:00 +9°C° 0 mm 1 mps 759 mmHg 94%
    02:00 +9°C° 0 mm 1 mps 759 mmHg 94%
    03:00 +8°C° 0 mm 1 mps 758 mmHg 94%
    04:00 +8°C° 0 mm 1 mps 758 mmHg 94%
    05:00 +9°C° 0 mm 1 mps 758 mmHg 94%
    06:00 +9°C° 0 mm 1 mps 758 mmHg 94%
    07:00 +9°C° 0.1 mm 1 mps 758 mmHg 93%
    08:00 +9°C° 0.1 mm 1 mps 759 mmHg 93%
    09:00 +9°C° 0.1 mm 1 mps 759 mmHg 92%
    10:00 +10°C° 0.2 mm 1 mps 759 mmHg 91%
    11:00 +10°C° 0.2 mm 1 mps 759 mmHg 89%
    12:00 +10°C° 0.2 mm 1 mps 759 mmHg 87%
    13:00 +10°C° 0.4 mm 1 mps 759 mmHg 87%
    14:00 +9°C° 0.4 mm 2 mps 758 mmHg 87%
    15:00 +9°C° 0.4 mm 2 mps 758 mmHg 87%
    16:00 +9°C° 0.3 mm 3 mps 758 mmHg 88%
    17:00 +9°C° 0.3 mm 3 mps 759 mmHg 90%
    18:00 +8°C° 0.3 mm 3 mps 759 mmHg 91%
    19:00 +8°C° 0 mm 3 mps 759 mmHg 90%
    20:00 +8°C° 0 mm 3 mps 760 mmHg 89%
    21:00 +7°C° 0 mm 3 mps 760 mmHg 88%
    22:00 +7°C° 0 mm 3 mps 761 mmHg 89%
    23:00 +5°C° 0 mm 3 mps 761 mmHg 90%

    19 February, Tuesday

    Time Temperature Precipitation Wind Pressure Humidity
    00:00 +6°C° 0 mm 2 mps 761 mmHg 90%
    01:00 +6°C° 0 mm 2 mps 761 mmHg 90%
    02:00 +5°C° 0 mm 2 mps 761 mmHg 90%
    03:00 +5°C° 0 mm 2 mps 761 mmHg 89%
    04:00 +5°C° 0 mm 2 mps 761 mmHg 89%
    05:00 +6°C° 0 mm 1 mps 761 mmHg 88%
    06:00 +5°C° 0 mm 1 mps 762 mmHg 87%
    07:00 +7°C° 0 mm 1 mps 762 mmHg 85%
    08:00 +8°C° 0 mm 1 mps 762 mmHg 82%
    09:00 +9°C° 0 mm 1 mps 763 mmHg 80%
    10:00 +9°C° 0 mm 2 mps 763 mmHg 74%
    11:00 +10°C° 0 mm 3 mps 763 mmHg 69%
    12:00 +11°C° 0 mm 4 mps 763 mmHg 64%
    13:00 +11°C° 0 mm 4 mps 762 mmHg 63%
    14:00 +11°C° 0 mm 4 mps 762 mmHg 62%
    15:00 +11°C° 0 mm 4 mps 762 mmHg 62%
    16:00 +8°C° 0 mm 4 mps 762 mmHg 67%
    17:00 +7°C° 0 mm 4 mps 762 mmHg 72%
    18:00 +7°C° 0 mm 3 mps 762 mmHg 77%
    19:00 +6°C° 0 mm 4 mps 762 mmHg 79%
    20:00 +6°C° 0 mm 4 mps 762 mmHg 81%
    21:00 +6°C° 0 mm 4 mps 762 mmHg 83%
    22:00 +6°C° 0 mm 4 mps 762 mmHg 84%
    23:00 +6°C° 0 mm 4 mps 762 mmHg 85%

    20 February, Wednesday

    Time Temperature Precipitation Wind Pressure Humidity
    00:00 +6°C° 0 mm 4 mps 762 mmHg 86%
    01:00 +6°C° 0 mm 4 mps 762 mmHg 87%
    02:00 +6°C° 0 mm 4 mps 762 mmHg 88%
    03:00 +6°C° 0 mm 4 mps 761 mmHg 89%
    04:00 +6°C° 0 mm 4 mps 761 mmHg 89%
    05:00 +6°C° 0 mm 4 mps 761 mmHg 89%
    06:00 +6°C° 0 mm 4 mps 761 mmHg 90%
    07:00 +7°C° 0 mm 4 mps 762 mmHg 88%
    08:00 +8°C° 0 mm 4 mps 762 mmHg 87%
    09:00 +10°C° 0 mm 4 mps 762 mmHg 85%
    10:00 +10°C° 0 mm 5 mps 762 mmHg 82%
    11:00 +10°C° 0 mm 5 mps 762 mmHg 78%
    12:00 +11°C° 0 mm 6 mps 762 mmHg 74%
    13:00 +12°C° 0 mm 5 mps 762 mmHg 75%
    14:00 +12°C° 0 mm 5 mps 762 mmHg 76%
    15:00 +12°C° 0 mm 5 mps 762 mmHg 76%
    16:00 +11°C° 0 mm 4 mps 762 mmHg 82%
    17:00 +10°C° 0 mm 4 mps 763 mmHg 87%
    18:00 +9°C° 0 mm 3 mps 763 mmHg 93%
    19:00 +9°C° 0 mm 3 mps 763 mmHg 93%
    20:00 +9°C° 0 mm 3 mps 763 mmHg 94%
    21:00 +9°C° 0 mm 3 mps 763 mmHg 94%
    22:00 +8°C° 0 mm 3 mps 763 mmHg 94%
    23:00 +8°C° 0 mm 3 mps 764 mmHg 94%

    21 February, Thursday

    Time Temperature Precipitation Wind Pressure Humidity
    00:00 +8°C° 0 mm 3 mps 764 mmHg 94%
    01:00 +8°C° 0 mm 3 mps 764 mmHg 94%
    02:00 +8°C° 0 mm 3 mps 764 mmHg 94%
    03:00 +8°C° 0 mm 3 mps 764 mmHg 93%
    04:00 +8°C° 0 mm 3 mps 764 mmHg 93%
    05:00 +6°C° 0 mm 4 mps 764 mmHg 93%
    06:00 +6°C° 0 mm 4 mps 763 mmHg 93%
    07:00 +7°C° 0 mm 4 mps 764 mmHg 90%
    08:00 +7°C° 0 mm 4 mps 764 mmHg 87%
    09:00 +8°C° 0 mm 5 mps 764 mmHg 84%
    10:00 +9°C° 0 mm 5 mps 764 mmHg 82%
    11:00 +10°C° 0 mm 5 mps 764 mmHg 79%
    12:00 +13°C° 0 mm 5 mps 764 mmHg 76%
    13:00 +13°C° 0 mm 5 mps 763 mmHg 75%
    14:00 +13°C° 0 mm 5 mps 763 mmHg 74%
    15:00 +14°C° 0 mm 5 mps 763 mmHg 73%
    16:00 +12°C° 0 mm 5 mps 763 mmHg 78%
    17:00 +10°C° 0 mm 5 mps 763 mmHg 82%
    18:00 +10°C° 0 mm 4 mps 763 mmHg 87%
    19:00 +9°C° 0 mm 5 mps 763 mmHg 88%
    20:00 +9°C° 0 mm 5 mps 763 mmHg 88%
    21:00 +8°C° 0 mm 5 mps 763 mmHg 89%
    22:00 +8°C° 0 mm 5 mps 763 mmHg 89%
    23:00 +8°C° 0 mm 5 mps 764 mmHg 89%
    Show more